[[{"header":{"parameterUnit":"m.s-1","parameterCategory":1,"la1":30.2991,"la2":30.254,"lo1":-89.0895,"lo2":-89.0444,"dy":0.0017,"dx":0.0017,"nx":28,"ny":28,"refTime":"2025-09-18T21:00:00:Z","depth":0,"parameterNumber":2,"parameterNumberName":"U-component_of_WINDS"},"data":[0,0,0,0,0,0,0,0,0,0,0,0,0,0,0,0,0,0,0,0,0,0,0,0,0,0,0,0,0,0,0,0,0,0,0,0,0,0,0,0,0,0,0,0,0,0,0,0,0,0,0,0,0,0,0,0,0,0,3.2748,3.2749,0,3.2804,3.2805,3.2806,3.2722,3.2719,3.2716,3.2713,3.277,3.2774,3.2778,0,0,0,0,0,0,0,0,0,0,0,0,0,3.2567,3.2571,3.2748,3.2749,3.2749,3.2804,3.2805,3.2806,3.2723,3.2719,3.2716,3.2712,3.2769,3.2774,3.2779,0,0,0,0,0,0,0,0,0,0,0,0,0,3.2637,3.2572,3.2748,3.2714,3.2712,3.2804,3.2805,3.2806,3.2723,3.2719,3.2715,3.271,3.2767,3.2773,3.278,3.2907,0,0,3.2799,3.2802,0,0,0,0,0,0,0,0,3.2633,3.2643,3.2719,3.2717,3.2714,3.2752,3.2762,3.284,3.2724,3.2719,3.2713,3.2708,3.2768,3.2774,3.2794,3.2909,3.2912,3.28,3.2803,3.2806,3.2808,0,0,0,0,0,0,0,3.2628,3.2641,3.277,3.272,3.2717,3.2696,3.2701,3.2776,3.2767,3.2719,3.2713,3.2721,3.2765,3.2788,3.2794,3.2913,3.2799,3.2805,3.2809,3.2811,3.3135,3.3139,0,0,0,0,0,0,3.2628,3.2637,3.2768,3.2772,3.2662,3.2703,3.2709,3.2744,3.2766,3.2765,3.2725,3.2717,3.2779,3.2787,3.2796,3.2946,3.2806,3.2812,3.2816,3.313,3.3136,3.3141,0,0,0,0,0,0,3.2624,3.264,3.2766,3.2703,3.2717,3.2711,3.2751,3.2748,3.277,3.277,3.2768,3.2749,3.2776,3.2787,3.288,3.2947,3.2815,3.2821,3.3124,3.3132,3.3138,3.3247,0,0,0,0,0,0,3.2619,3.2639,3.2688,3.2705,3.2721,3.2849,3.2755,3.2752,3.2781,3.2771,3.2793,3.2792,3.2773,3.2871,3.2886,3.2953,3.2826,3.3118,3.3128,3.3136,3.3237,3.3257,3.3273,0,0,0,0,0,3.2613,3.2716,3.2691,3.2707,3.2782,3.2853,3.2863,3.2839,3.2787,3.2835,3.2836,3.2792,3.2937,3.2881,3.2898,3.2967,3.3114,3.3125,3.3135,3.3229,3.3253,3.3273,0,0,0,0,0,0,3.2706,3.2717,3.2689,3.2801,3.2827,3.2839,3.2899,3.2865,3.2907,3.2896,3.2865,3.287,3.2969,3.2978,3.2915,3.3091,3.3017,3.3031,3.3082,3.3105,3.3123,3.3118,3.2831,0,0,0,0,0,3.274,3.2797,3.2804,3.2902,3.2916,3.2906,3.2936,3.2916,3.2942,3.2952,3.2959,3.2986,3.3037,3.3071,3.3119,3.3238,3.3241,3.3294,3.3313,3.3328,3.334,3.3403,3.3427,3.3176,3.3176,3.3176,0,0,3.2809,3.2823,3.2861,3.2921,3.2938,3.2999,3.2916,3.2983,3.3027,3.2962,3.305,3.3056,3.3083,3.319,3.3237,3.32,3.341,3.3341,3.3353,3.3358,3.3417,3.3441,3.3462,3.3184,3.3182,3.3181,0,0,3.2967,3.2983,3.3066,3.3086,3.3114,3.3107,3.3127,3.3145,3.3147,3.3234,3.3187,3.3239,3.3329,3.335,3.3372,3.3539,3.35,3.3556,3.365,3.3712,3.3732,3.3749,3.3808,3.3829,3.3568,3.3569,3.3569,0,3.3049,3.3139,3.3113,3.3184,3.3211,3.3156,3.3239,3.326,3.3302,3.3322,3.328,3.3392,3.3406,3.3516,3.3557,3.3578,3.3599,3.3552,3.3731,3.3748,3.3764,3.3819,3.3842,3.3575,3.3574,3.3574,3.3573,0,3.3239,3.3301,3.3365,3.3408,3.3442,3.3519,3.3505,3.3543,3.3521,3.3518,3.3608,3.3623,3.3673,3.3698,3.3676,3.3806,3.3781,3.3736,3.366,3.3795,3.3846,3.3868,3.3585,3.3582,3.358,3.3579,0,0,3.3455,3.3483,3.3507,3.3526,3.3553,3.3601,3.3676,3.3724,3.3758,3.3789,3.385,3.3928,3.3886,3.3912,3.3892,3.3947,3.4077,3.3894,3.3894,3.3927,3.422,3.4253,3.4278,3.4052,3.4056,3.4059,3.4217,0,3.3611,3.374,3.3719,3.3844,3.3901,3.385,3.3915,3.3939,3.3939,3.3987,3.3986,3.4041,3.3982,3.3997,3.4049,3.405,3.4135,3.4039,3.4107,3.411,3.4101,3.4305,3.434,3.4489,3.4237,3.4241,3.4243,0,3.3811,3.385,3.398,3.3999,3.4022,3.4081,3.4124,3.4171,3.4197,3.4193,3.4223,3.4193,3.4267,3.4191,3.4292,3.4227,3.4254,3.4259,3.4264,3.4269,3.4184,3.4314,3.4536,3.4558,3.4275,3.4272,3.427,0,3.3954,3.404,3.4129,3.4146,3.4171,3.4213,3.4225,3.4247,3.4278,3.4316,3.4335,3.4382,3.4407,3.4443,3.4426,3.4373,3.453,3.4453,3.4528,3.4529,3.4562,3.456,3.479,3.4582,3.4582,3.4582,3.4581,0,3.413,3.4212,3.4193,3.4248,3.4338,3.4314,3.4403,3.4409,3.4429,3.4483,3.4443,3.4494,3.447,3.452,3.4508,3.4593,3.4605,3.4603,3.4599,3.4606,3.4606,3.4622,3.4611,3.4588,3.4586,3.4585,3.4584,0,3.4305,3.4296,3.439,3.4406,3.4412,3.4477,3.449,3.4541,3.4538,3.4608,3.4622,3.4618,3.4675,3.4662,3.4725,3.4716,3.4823,3.4806,3.4815,3.481,3.4885,3.4878,3.5133,3.5164,3.4937,3.4939,3.4941,0,3.4417,3.4479,3.4502,3.4536,3.4551,3.4606,3.4637,3.4616,3.4651,3.4685,3.4732,3.4786,3.4827,3.4921,3.4922,3.497,3.4953,3.504,3.496,3.4966,3.4953,3.4949,3.4955,3.5055,3.5057,3.5059,3.5061,0,3.4617,3.461,3.4657,3.4703,3.4742,3.4777,3.4808,3.4839,3.482,3.486,3.4919,3.4951,3.5015,3.5069,3.5113,3.5125,3.509,3.5087,3.5106,3.5113,3.5115,3.5114,3.4856,3.508,3.5078,3.5077,3.5076,3.5075,3.4763,3.4816,3.484,3.4894,3.4915,3.4945,3.4994,3.4997,3.5046,3.5096,3.5081,3.5147,3.5172,3.5228,3.5245,3.5296,3.5263,3.5292,3.5299,3.5306,3.5315,3.5109,3.5304,3.5303,3.5303,3.5303,3.5302,0,3.496,3.4973,3.5024,3.5069,3.5111,3.5076,3.5109,3.5146,3.5205,3.5231,3.5273,3.534,3.5392,3.5398,3.5447,3.5487,3.5472,3.55,3.5496,3.5499,3.5342,3.5319,3.5511,3.5511,3.5511,3.5511,3.5511,3.5511,3.5067,3.5154,3.515,3.5246,3.5258,3.5323,3.5345,3.5373,3.5393,3.547,3.5513,3.5517,3.5535,3.5585,3.5631,3.5631,3.5651,3.5685,3.5679,3.5531,3.5511,3.5491,3.5469,3.569,3.569,3.5832,3.5834,3.5835]},{"header":{"parameterUnit":"m.s-1","parameterCategory":1,"la1":30.2991,"la2":30.254,"lo1":-89.0895,"lo2":-89.0444,"dy":0.0017,"dx":0.0017,"nx":28,"ny":28,"refTime":"2025-09-18T21:00:00:Z","depth":0,"parameterNumber":3,"parameterNumberName":"V-component_of_WINDS"},"data":[0,0,0,0,0,0,0,0,0,0,0,0,0,0,0,0,0,0,0,0,0,0,0,0,0,0,0,0,0,0,0,0,0,0,0,0,0,0,0,0,0,0,0,0,0,0,0,0,0,0,0,0,0,0,0,0,0,0,0.4936,0.4936,0,0.4903,0.4903,0.4903,0.4863,0.4862,0.4862,0.4861,0.4828,0.4828,0.4828,0,0,0,0,0,0,0,0,0,0,0,0,0,0.4964,0.4964,0.4936,0.4936,0.4935,0.4903,0.4903,0.4902,0.4863,0.4862,0.4862,0.4861,0.4829,0.4828,0.4828,0,0,0,0,0,0,0,0,0,0,0,0,0,0.4944,0.4964,0.4936,0.4912,0.4909,0.4903,0.4903,0.4902,0.4863,0.4862,0.4861,0.4861,0.4829,0.4828,0.4828,0.4844,0,0,0.4826,0.4826,0,0,0,0,0,0,0,0,0.4945,0.4943,0.4916,0.4913,0.4911,0.4886,0.4901,0.4883,0.4864,0.4881,0.4861,0.486,0.4848,0.4846,0.4842,0.4842,0.4841,0.4826,0.4826,0.4826,0.4826,0,0,0,0,0,0,0,0.4947,0.4944,0.4923,0.4915,0.4912,0.4902,0.4898,0.4897,0.487,0.4879,0.4876,0.4873,0.4847,0.4843,0.4841,0.484,0.4826,0.4826,0.4826,0.4826,0.485,0.4851,0,0,0,0,0,0,0.4952,0.4946,0.4924,0.4922,0.4926,0.4903,0.4898,0.4895,0.487,0.4865,0.4874,0.4871,0.4844,0.4842,0.484,0.4856,0.4826,0.4825,0.4825,0.4849,0.485,0.4851,0,0,0,0,0,0,0.4952,0.495,0.4925,0.4933,0.4929,0.4903,0.49,0.4895,0.4891,0.4866,0.4861,0.4874,0.4843,0.4841,0.4843,0.4854,0.4825,0.4825,0.4848,0.4849,0.4851,0.4889,0,0,0,0,0,0,0.4953,0.4951,0.4956,0.4933,0.4929,0.4929,0.4901,0.4895,0.489,0.4886,0.4865,0.4861,0.4842,0.4844,0.4842,0.4853,0.4825,0.4847,0.4849,0.485,0.4887,0.4892,0.4896,0,0,0,0,0,0.4955,0.4969,0.4957,0.4955,0.4936,0.493,0.4927,0.4905,0.4891,0.4897,0.4881,0.4862,0.4853,0.4844,0.4842,0.4853,0.4846,0.4848,0.485,0.4885,0.4891,0.4896,0,0,0,0,0,0,0.4994,0.4965,0.4952,0.4959,0.4947,0.4923,0.4929,0.4912,0.4904,0.4901,0.4874,0.487,0.4875,0.4864,0.4855,0.4867,0.4847,0.4849,0.4874,0.4879,0.4884,0.4886,0.4824,0,0,0,0,0,0.5004,0.5002,0.4976,0.4985,0.498,0.4956,0.4952,0.4936,0.4923,0.4918,0.4902,0.489,0.4884,0.4881,0.4875,0.4885,0.4879,0.4891,0.4896,0.49,0.4902,0.4906,0.4911,0.4858,0.4858,0.4858,0,0,0.5024,0.5008,0.5008,0.4993,0.4982,0.498,0.4952,0.4951,0.4949,0.4918,0.4918,0.4906,0.4891,0.4897,0.4899,0.4888,0.4915,0.4903,0.4906,0.4906,0.4908,0.4913,0.4918,0.4859,0.4859,0.4859,0,0,0.5059,0.5047,0.5053,0.5042,0.5025,0.5008,0.501,0.4988,0.4979,0.4979,0.4955,0.4952,0.4944,0.4933,0.4927,0.4957,0.4939,0.4956,0.498,0.4984,0.4988,0.4992,0.5002,0.5006,0.4958,0.4958,0.4958,0,0.5086,0.5082,0.5058,0.5058,0.5052,0.5023,0.5028,0.5019,0.5001,0.4997,0.4986,0.4973,0.4961,0.4964,0.4971,0.4967,0.4967,0.4958,0.499,0.4993,0.4996,0.5005,0.5009,0.496,0.496,0.496,0.4959,0,0.5116,0.5113,0.512,0.5103,0.5097,0.5101,0.5076,0.5074,0.5058,0.5043,0.5043,0.5027,0.5016,0.5016,0.5001,0.5016,0.501,0.4994,0.4974,0.5003,0.5012,0.5015,0.4963,0.4962,0.4962,0.4961,0,0,0.5176,0.5145,0.5147,0.5139,0.5118,0.5115,0.5117,0.5106,0.5104,0.5093,0.5093,0.5086,0.507,0.5063,0.5047,0.505,0.5074,0.5034,0.5033,0.5042,0.509,0.5102,0.5107,0.5062,0.5063,0.5063,0.5091,0,0.5207,0.5208,0.5185,0.5192,0.5189,0.5161,0.5162,0.5149,0.5135,0.513,0.5114,0.5109,0.509,0.5085,0.5088,0.5071,0.5084,0.5069,0.5062,0.5062,0.5067,0.5111,0.5124,0.5151,0.5094,0.5095,0.5095,0,0.5244,0.5234,0.524,0.5218,0.5216,0.5217,0.5205,0.5201,0.5186,0.5175,0.5166,0.5147,0.5146,0.5127,0.5125,0.5116,0.5112,0.5103,0.5103,0.5102,0.5081,0.5111,0.5159,0.5164,0.5101,0.51,0.51,0,0.5286,0.5274,0.5276,0.527,0.5244,0.5246,0.5235,0.5219,0.5214,0.5203,0.5199,0.5189,0.5183,0.5176,0.5154,0.5142,0.5155,0.5134,0.5146,0.5146,0.515,0.515,0.5198,0.5148,0.5148,0.5147,0.5147,0,0.5323,0.5328,0.5295,0.5296,0.5301,0.5275,0.528,0.5267,0.5252,0.525,0.5225,0.5224,0.5195,0.519,0.5173,0.5174,0.5172,0.5163,0.5159,0.5166,0.5167,0.5163,0.516,0.5149,0.5148,0.5148,0.5148,0,0.5372,0.535,0.535,0.5325,0.5319,0.5324,0.5303,0.5303,0.5286,0.5284,0.5282,0.5257,0.525,0.5227,0.5215,0.5203,0.521,0.5201,0.5215,0.5212,0.5225,0.5224,0.5273,0.5277,0.5224,0.5224,0.5225,0,0.5397,0.54,0.5375,0.5372,0.5362,0.5358,0.5352,0.5326,0.5322,0.5304,0.5306,0.5297,0.5288,0.5278,0.5259,0.5249,0.524,0.5257,0.5238,0.5244,0.5239,0.5239,0.5239,0.5261,0.5262,0.5263,0.5263,0,0.5443,0.5432,0.5425,0.5414,0.5408,0.5398,0.5386,0.5385,0.5356,0.5352,0.5344,0.5338,0.5325,0.5316,0.5303,0.5291,0.5273,0.5269,0.5271,0.5279,0.5286,0.5282,0.5226,0.5268,0.5268,0.5267,0.5267,0.5267,0.548,0.5482,0.5464,0.5457,0.5446,0.5435,0.5434,0.5417,0.5411,0.5398,0.5383,0.5377,0.5361,0.5341,0.5331,0.5326,0.5316,0.5319,0.532,0.5321,0.5324,0.5287,0.5323,0.5323,0.5323,0.5323,0.5323,0,0.5525,0.5513,0.5506,0.5491,0.5485,0.5467,0.5453,0.545,0.5445,0.5431,0.5423,0.5414,0.5405,0.5384,0.5374,0.5373,0.5364,0.5371,0.5371,0.5369,0.5334,0.5333,0.5379,0.5379,0.5379,0.5379,0.5379,0.5379,0.5548,0.5549,0.5536,0.553,0.5517,0.5511,0.5505,0.5495,0.5484,0.5475,0.5467,0.5454,0.5437,0.5425,0.5416,0.541,0.5407,0.5417,0.5408,0.5376,0.5371,0.5366,0.5365,0.5416,0.5417,0.5443,0.5443,0.5443]}]]